Weather Roundup
Issued by NWS Springfield, MO

Home | Current Version | Previous Version | Text Only | Print | Product List | Glossary On
Versions: 1 2 3 4 5 6 7 8 9 10 11 12 13 14 15 16 17 18 19 20 21 22 23 24 25 26 27 28 29 30 31 32 33 34 35 36 37 38 39 40 41 42 43 44 45 46 47 48 49 50
000
NZUS99 KSGF 302210
HRRSGF

HOURLY WEATHER
NATIONAL WEATHER SERVICE SPRINGFIELD MO
500 PM CDT SUN AUG 30 2015

......SGF CWA......

CITY           SKY/WX    TMP DP  RH WIND       PRES   REMARKS
SPRINGFIELD    MOSUNNY   85  68  56 S9        29.99F
JOPLIN         PTSUNNY   84  70  62 SE6       29.96F
WEST PLAINS    MOSUNNY   84  69  60 SW7       30.03F
ROLLA          MOSUNNY   85  68  56 S7        29.99F
OSAGE BEACH    MOSUNNY   86  72  62 S7        29.99S HX  92
BRANSON        PTSUNNY   86  70  58 S6        30.02F HX  90

......SURROUNDING SGF CWA......

CITY           SKY/WX    TMP DP  RH WIND       PRES   REMARKS
CHANUTE        CLOUDY    83  70  64 E6        29.97F
PARSONS        MOSUNNY   85  73  67 N3        29.97F HX  91
COFFEYVILLE    MOSUNNY   84  72  67 E3        29.95F
EMPORIA        SUNNY     81  66  60 E8        29.98F
GROVE OK       MOSUNNY   88  68  51 S6        29.96F HX  91
ROGERS AR      PTSUNNY   82  70  66 SE6       30.00F
SILOAM SPRINGS SUNNY     84  68  58 S13       29.96F
NEAR YELLVILLE MOSUNNY   88  64  45 SE5       29.97F

......KANSAS AND MISSOURI......

CITY           SKY/WX    TMP DP  RH WIND       PRES   REMARKS
KANSAS CTY INT MOSUNNY   84  63  49 E7        29.98F
DOWNTOWN KC    MOSUNNY   85  70  60 SE6       29.96F
COLUMBIA       MOSUNNY   85  70  60 E3        30.00S
SEDALIA        MOSUNNY   87  70  56 SE8       29.99F HX  92
ST JOSEPH      SUNNY     82  69  64 SE7       29.98F
ST LOUIS       PTSUNNY   87  67  51 VRB3      29.99F HX  90
SPIRIT OF STL  MOSUNNY   88  70  55 CALM      29.97F HX  93
KIRKSVILLE     MOSUNNY   83  67  58 S6        30.02F
WICHITA        MOSUNNY   81  64  56 SE8       29.97F
TOPEKA         SUNNY     83  69  62 SE5       29.98F
OLATHE         SUNNY     81  69  67 SE6       29.98F

......TENNESSEE......

CITY           SKY/WX    TMP DP  RH WIND       PRES   REMARKS
MEMPHIS        PTSUNNY   89  65  44 S3        29.99F HX  91
NASHVILLE      PTSUNNY   79  62  56 SE5       30.08F

......ARKANSAS.......

CITY           SKY/WX    TMP DP  RH WIND       PRES   REMARKS
FAYETTEVILLE   MOSUNNY   83  71  67 S7        29.99F
FT SMITH       PTSUNNY   85  70  60 N7        29.92F
LITTLE ROCK    MOSUNNY   94  64  37 SE9       29.95F HX  95

......OKLAHOMA.......

CITY           SKY/WX    TMP DP  RH WIND       PRES   REMARKS
TULSA          PTSUNNY   87  71  58 SE8       29.91F HX  93
PONCA CITY     SUNNY     86  68  54 SE8       29.94F
MCALESTER      MOSUNNY   87  72  60 W10G20    29.93F HX  93
OKLAHOMA CITY  MOSUNNY   88  63  43 SW8       29.94F

......IOWA............

CITY           SKY/WX    TMP DP  RH WIND       PRES   REMARKS
DES MOINES     PTSUNNY   78  67  68 S6        30.01S
QUAD CITIES    SUNNY     80  64  58 NW3       30.02F

......ILLINOIS........

CITY           SKY/WX    TMP DP  RH WIND       PRES   REMARKS
QUINCY         MOSUNNY   86  67  52 VRB3      30.00F
CHICAGO        MOSUNNY   76  63  64 SW5       30.02F




USA.gov is the U.S. government's official web portal to all federal, state and local government web resources and services.